Location: Skalnate Pleso
(49.1889°N, 20.2450°E)
Time: 08:23:13
(UTC+02:00)

Cosmos 1605 Rocket - Pass Details

Date: 21 February 2020
Orbit: 944 x 1007 km, 82.9° (Epoch: 07 April)

Event Time Altitude Azimuth Distance (km) Brightness Sun altitude
Rises 18:35:49 0° 241° (WSW) 3,728 8.1 -15.0°
Reaches altitude 10° 18:39:20 10° 260° (W) 2,778 7.7 -15.6°
Maximum altitude 18:43:27 18° 301° (WNW) 2,265 6.8 -16.3°
Drops below altitude 10° 18:47:34 10° 341° (NNW) 2,769 6.6 -16.9°
Sets 18:51:06 0° 1° (N) 3,712 7.1 -17.5°
